Map

Track Data

SID SEASON NUMBER BASIN SUBBASIN NAME ISO_TIME NATURE LAT LON WMO_WIND WMO_PRES WMO_AGENCY TRACK_TYPE DIST2LAND LANDFALL IFLAG USA_AGENCY USA_ATCF_ID USA_LAT USA_LON USA_RECORD USA_STATUS USA_WIND USA_PRES USA_SSHS USA_R34_NE USA_R34_SE USA_R34_SW USA_R34_NW USA_R50_NE USA_R50_SE USA_R50_SW USA_R50_NW USA_R64_NE USA_R64_SE USA_R64_SW USA_R64_NW USA_POCI USA_ROCI USA_RMW USA_EYE TOKYO_LAT TOKYO_LON TOKYO_GRADE TOKYO_WIND TOKYO_PRES TOKYO_R50_DIR TOKYO_R50_LONG TOKYO_R50_SHORT TOKYO_R30_DIR TOKYO_R30_LONG TOKYO_R30_SHORT TOKYO_LAND CMA_LAT CMA_LON CMA_CAT CMA_WIND CMA_PRES HKO_LAT HKO_LON HKO_CAT HKO_WIND HKO_PRES NEWDELHI_LAT NEWDELHI_LON NEWDELHI_GRADE NEWDELHI_WIND NEWDELHI_PRES NEWDELHI_CI NEWDELHI_DP NEWDELHI_POCI REUNION_LAT REUNION_LON REUNION_TYPE REUNION_WIND REUNION_PRES REUNION_TNUM REUNION_CI REUNION_RMW REUNION_R34_NE REUNION_R34_SE REUNION_R34_SW REUNION_R34_NW REUNION_R50_NE REUNION_R50_SE REUNION_R50_SW REUNION_R50_NW REUNION_R64_NE REUNION_R64_SE REUNION_R64_SW REUNION_R64_NW BOM_LAT BOM_LON BOM_TYPE BOM_WIND BOM_PRES BOM_TNUM BOM_CI BOM_RMW BOM_R34_NE BOM_R34_SE BOM_R34_SW BOM_R34_NW BOM_R50_NE BOM_R50_SE BOM_R50_SW BOM_R50_NW BOM_R64_NE BOM_R64_SE BOM_R64_SW BOM_R64_NW BOM_ROCI BOM_POCI BOM_EYE BOM_POS_METHOD BOM_PRES_METHOD NADI_LAT NADI_LON NADI_CAT NADI_WIND NADI_PRES WELLINGTON_LAT WELLINGTON_LON WELLINGTON_WIND WELLINGTON_PRES DS824_LAT DS824_LON DS824_STAGE DS824_WIND DS824_PRES TD9636_LAT TD9636_LON TD9636_STAGE TD9636_WIND TD9636_PRES TD9635_LAT TD9635_LON TD9635_WIND TD9635_PRES TD9635_ROCI NEUMANN_LAT NEUMANN_LON NEUMANN_CLASS NEUMANN_WIND NEUMANN_PRES MLC_LAT MLC_LON MLC_CLASS MLC_WIND MLC_PRES USA_GUST BOM_GUST BOM_GUST_PER REUNION_GUST REUNION_GUST_PER USA_SEAHGT USA_SEARAD_NE USA_SEARAD_SE USA_SEARAD_SW USA_SEARAD_NW STORM_SPEED STORM_DIR
1970230N12316 1970 91 NA NA DOROTHY 1970-08-18 00:00:00 TS 11.5000 -44.3000 25 hurdat_atl main 1115 1065 O_____________ hurdat_atl AL091970 11.5000 -44.3000 TD 25 -1 16 281
1970230N12316 1970 91 NA NA DOROTHY 1970-08-18 03:00:00 TS 11.6504 -45.0998 main 1074 1029 P_____________ AL091970 11.6504 -45.0998 TD 25 -1 16 281
1970230N12316 1970 91 NA NA DOROTHY 1970-08-18 06:00:00 TS 11.8000 -45.9000 25 hurdat_atl main 1029 990 O_____________ hurdat_atl AL091970 11.8000 -45.9000 TD 25 -1 16 281
1970230N12316 1970 91 NA NA DOROTHY 1970-08-18 09:00:00 TS 11.9498 -46.7001 main 990 954 P_____________ AL091970 11.9498 -46.7001 TD 27 -1 16 281
1970230N12316 1970 91 NA NA DOROTHY 1970-08-18 12:00:00 TS 12.1000 -47.5000 30 hurdat_atl main 954 915 O_____________ hurdat_atl AL091970 12.1000 -47.5000 TD 30 -1 16 281
1970230N12316 1970 91 NA NA DOROTHY 1970-08-18 15:00:00 TS 12.2423 -48.3002 main 915 893 P_____________ AL091970 12.2423 -48.3002 TD 32 -1 16 281
1970230N12316 1970 91 NA NA DOROTHY 1970-08-18 18:00:00 TS 12.4000 -49.1000 35 hurdat_atl main 893 875 O_____________ hurdat_atl AL091970 12.4000 -49.1000 TS 35 0 16 283
1970230N12316 1970 91 NA NA DOROTHY 1970-08-18 21:00:00 TS 12.5998 -49.9075 main 877 863 P_____________ AL091970 12.5998 -49.9075 TS 37 0 16 284
1970230N12316 1970 91 NA NA DOROTHY 1970-08-19 00:00:00 TS 12.8000 -50.7000 40 hurdat_atl main 863 842 O_____________ hurdat_atl AL091970 12.8000 -50.7000 TS 40 0 16 284
1970230N12316 1970 91 NA NA DOROTHY 1970-08-19 03:00:00 TS 12.9647 -51.4576 main 848 834 P_____________ AL091970 12.9647 -51.4576 TS 42 0 15 282
1970230N12316 1970 91 NA NA DOROTHY 1970-08-19 06:00:00 TS 13.1000 -52.2000 45 hurdat_atl main 835 827 O_____________ hurdat_atl AL091970 13.1000 -52.2000 TS 45 0 15 279
1970230N12316 1970 91 NA NA DOROTHY 1970-08-19 09:00:00 TS 13.2073 -52.9576 main 828 823 P_____________ AL091970 13.2073 -52.9576 TS 47 0 15 278
1970230N12316 1970 91 NA NA DOROTHY 1970-08-19 12:00:00 TS 13.3000 -53.7000 50 1001 hurdat_atl main 829 779 O_____________ hurdat_atl AL091970 13.3000 -53.7000 TS 50 1001 0 14 278
1970230N12316 1970 91 NA NA DOROTHY 1970-08-19 15:00:00 TS 13.3997 -54.4076 main 779 714 P_____________ AL091970 13.3997 -54.4076 TS 50 1003 0 14 278
1970230N12316 1970 91 NA NA DOROTHY 1970-08-19 18:00:00 TS 13.5000 -55.1000 50 1005 hurdat_atl main 714 652 O_____________ hurdat_atl AL091970 13.5000 -55.1000 TS 50 1005 0 14 279
1970230N12316 1970 91 NA NA DOROTHY 1970-08-19 21:00:00 TS 13.6072 -55.7925 main 652 593 P_____________ AL091970 13.6072 -55.7925 TS 50 1004 0 14 278
1970230N12316 1970 91 NA NA DOROTHY 1970-08-20 00:00:00 TS 13.7000 -56.5000 50 1003 hurdat_atl main 593 532 O_____________ hurdat_atl AL091970 13.7000 -56.5000 TS 50 1003 0 14 275
1970230N12316 1970 91 NA NA DOROTHY 1970-08-20 03:00:00 TS 13.7423 -57.2427 main 532 476 P_____________ AL091970 13.7423 -57.2427 TS 55 999 0 15 274
1970230N12316 1970 91 NA NA DOROTHY 1970-08-20 06:00:00 TS 13.8000 -58.0000 60 996 hurdat_atl main 476 436 O_____________ hurdat_atl AL091970 13.8000 -58.0000 TS 60 996 0 15 277
1970230N12316 1970 91 NA NA DOROTHY 1970-08-20 09:00:00 TS 13.9275 -58.7799 main 430 413 P_____________ AL091970 13.9275 -58.7799 TS 60 997 0 15 282
1970230N12316 1970 91 NA NA DOROTHY 1970-08-20 12:00:00 TS 14.1000 -59.5000 60 998 hurdat_atl main 414 410 O_____________ hurdat_atl AL091970 14.1000 -59.5000 TS 60 998 0 13 289
1970230N12316 1970 91 NA CS DOROTHY 1970-08-20 15:00:00 TS 14.3477 -60.0604 main 414 414 P_____________ AL091970 14.3477 -60.0604 TS 60 999 0 11 291
1970230N12316 1970 91 NA CS DOROTHY 1970-08-20 18:00:00 TS 14.5000 -60.6000 60 hurdat_atl main 427 426 I_____________ hurdat_atl AL091970 14.5000 -60.6000 TS 60 1000 0 11 282
1970230N12316 1970 91 NA CS DOROTHY 1970-08-20 19:00:00 TS 14.5000 -60.8000 60 hurdat_atl main 426 425 I_____________ hurdat_atl AL091970 14.5000 -60.8000 L TS 60 1000 0 13 275
1970230N12316 1970 91 NA CS DOROTHY 1970-08-20 21:00:00 TS 14.5568 -61.2494 main 436 436 P_____________ AL091970 14.5568 -61.2494 TS 57 1001 0 14 280
1970230N12316 1970 91 NA CS DOROTHY 1970-08-21 00:00:00 TS 14.7000 -62.0000 55 1002 hurdat_atl main 448 447 O_____________ hurdat_atl AL091970 14.7000 -62.0000 TS 55 1002 0 15 278
1970230N12316 1970 91 NA CS DOROTHY 1970-08-21 03:00:00 TS 14.7542 -62.7599 main 459 434 P_____________ AL091970 14.7542 -62.7599 TS 52 1003 0 15 274
1970230N12316 1970 91 NA CS DOROTHY 1970-08-21 06:00:00 TS 14.8000 -63.5000 50 hurdat_atl main 434 391 I_____________ hurdat_atl AL091970 14.8000 -63.5000 TS 50 1004 0 14 276
1970230N12316 1970 91 NA CS DOROTHY 1970-08-21 09:00:00 TS 14.8922 -64.1725 main 386 352 P_____________ AL091970 14.8922 -64.1725 TS 45 1005 0 13 279
1970230N12316 1970 91 NA CS DOROTHY 1970-08-21 12:00:00 TS 15.0000 -64.8000 40 1006 hurdat_atl main 352 324 O_____________ hurdat_atl AL091970 15.0000 -64.8000 TS 40 1006 0 12 280
1970230N12316 1970 91 NA CS DOROTHY 1970-08-21 15:00:00 TS 15.0998 -65.4076 main 324 302 P_____________ AL091970 15.0998 -65.4076 TS 40 1005 0 12 280
1970230N12316 1970 91 NA CS DOROTHY 1970-08-21 18:00:00 TS 15.2000 -66.0000 40 1005 hurdat_atl main 302 291 O_____________ hurdat_atl AL091970 15.2000 -66.0000 TS 40 1005 0 12 280
1970230N12316 1970 91 NA CS DOROTHY 1970-08-21 21:00:00 TS 15.3004 -66.5974 main 292 279 P_____________ AL091970 15.3004 -66.5974 TS 37 1006 0 12 280
1970230N12316 1970 91 NA CS DOROTHY 1970-08-22 00:00:00 TS 15.4000 -67.2000 35 1007 hurdat_atl main 279 O_____________ hurdat_atl AL091970 15.4000 -67.2000 TS 35 1007 0 12 280

About IBTrACS Database

This database is a web-friendly format of International Best Track Archive for Climate Stewardship (IBTrACS), a global best track data archive curated by NOAA dating back to 1842.

Updated: 2022-11-16